When you browse on this site, cookies collect data to enhance your experience and personalize the content and advertising you see.
Visit our Privacy Policy to learn more. By continuing to use the site, you agree to this use of cookies and data.
  • In Lithuania
  • List of Countries
  • For 7 days
  • Water Temperature
  • Satellite Maps
  • Weather Map
  • Weather Widgets
  • user-avatar
    Login

    Hourly Weather Natal

    Today, 13 December, Thursday

    Time Temperature Precipitation Wind Pressure Humidity
    00:00 +28°C° 0.1 mm 5 mps 759 mmHg 76%
    01:00 +27°C° 0.1 mm 5 mps 759 mmHg 78%
    02:00 +27°C° 0.1 mm 5 mps 759 mmHg 79%
    03:00 +27°C° 0.1 mm 5 mps 759 mmHg 81%
    04:00 +27°C° 0.1 mm 5 mps 759 mmHg 82%
    05:00 +27°C° 0.1 mm 5 mps 759 mmHg 81%
    06:00 +27°C° 0.1 mm 5 mps 759 mmHg 80%
    07:00 +27°C° 0.1 mm 6 mps 759 mmHg 80%
    08:00 +29°C° 0 mm 6 mps 759 mmHg 71%
    09:00 +32°C° 0 mm 6 mps 759 mmHg 62%
    10:00 +34°C° 0 mm 6 mps 759 mmHg 54%
    11:00 +34°C° 0 mm 6 mps 759 mmHg 51%
    12:00 +35°C° 0 mm 6 mps 759 mmHg 49%
    13:00 +36°C° 0 mm 7 mps 759 mmHg 47%
    14:00 +35°C° 0 mm 7 mps 759 mmHg 49%
    15:00 +35°C° 0 mm 7 mps 758 mmHg 51%
    16:00 +34°C° 0 mm 7 mps 758 mmHg 54%
    17:00 +33°C° 0 mm 6 mps 758 mmHg 60%
    18:00 +30°C° 0 mm 6 mps 759 mmHg 66%
    19:00 +29°C° 0 mm 6 mps 759 mmHg 72%
    20:00 +29°C° 0 mm 6 mps 759 mmHg 74%
    21:00 +28°C° 0 mm 5 mps 760 mmHg 76%
    22:00 +28°C° 0 mm 5 mps 760 mmHg 79%
    23:00 +28°C° 0.1 mm 5 mps 760 mmHg 80%

    Tomorrow, 14 December, Friday

    Time Temperature Precipitation Wind Pressure Humidity
    00:00 +27°C° 0.1 mm 5 mps 760 mmHg 81%
    01:00 +27°C° 0.1 mm 5 mps 760 mmHg 83%
    02:00 +27°C° 0.2 mm 5 mps 759 mmHg 83%
    03:00 +27°C° 0.2 mm 5 mps 759 mmHg 84%
    04:00 +26°C° 0.2 mm 5 mps 759 mmHg 85%
    05:00 +27°C° 0.2 mm 5 mps 759 mmHg 84%
    06:00 +27°C° 0.2 mm 5 mps 759 mmHg 82%
    07:00 +27°C° 0.2 mm 5 mps 759 mmHg 80%
    08:00 +29°C° 0.1 mm 5 mps 760 mmHg 72%
    09:00 +32°C° 0.1 mm 6 mps 760 mmHg 63%
    10:00 +34°C° 0.1 mm 6 mps 760 mmHg 55%
    11:00 +34°C° 0 mm 6 mps 760 mmHg 54%
    12:00 +34°C° 0 mm 6 mps 760 mmHg 52%
    13:00 +34°C° 0 mm 7 mps 759 mmHg 51%
    14:00 +34°C° 0 mm 7 mps 759 mmHg 51%
    15:00 +34°C° 0 mm 7 mps 759 mmHg 52%
    16:00 +34°C° 0 mm 7 mps 758 mmHg 52%
    17:00 +33°C° 0 mm 7 mps 759 mmHg 57%
    18:00 +32°C° 0 mm 6 mps 759 mmHg 63%
    19:00 +29°C° 0 mm 6 mps 759 mmHg 68%
    20:00 +29°C° 0 mm 6 mps 760 mmHg 70%
    21:00 +28°C° 0 mm 6 mps 761 mmHg 73%
    22:00 +28°C° 0 mm 6 mps 761 mmHg 75%
    23:00 +28°C° 0 mm 6 mps 761 mmHg 76%

    Day after tomorrow, 15 December, Saturday

    Time Temperature Precipitation Wind Pressure Humidity
    00:00 +27°C° 0 mm 5 mps 761 mmHg 78%
    01:00 +27°C° 0 mm 5 mps 760 mmHg 79%
    02:00 +27°C° 0 mm 5 mps 760 mmHg 80%
    03:00 +27°C° 0 mm 5 mps 760 mmHg 81%
    04:00 +26°C° 0 mm 5 mps 759 mmHg 82%
    05:00 +27°C° 0.1 mm 5 mps 760 mmHg 81%
    06:00 +27°C° 0.1 mm 6 mps 760 mmHg 80%
    07:00 +27°C° 0.1 mm 6 mps 760 mmHg 79%
    08:00 +29°C° 0.1 mm 6 mps 761 mmHg 72%
    09:00 +32°C° 0.1 mm 7 mps 761 mmHg 64%
    10:00 +33°C° 0.1 mm 7 mps 761 mmHg 56%
    11:00 +34°C° 0 mm 7 mps 761 mmHg 51%
    12:00 +35°C° 0 mm 7 mps 760 mmHg 47%
    13:00 +36°C° 0 mm 7 mps 760 mmHg 43%
    14:00 +36°C° 0.1 mm 7 mps 760 mmHg 45%
    15:00 +35°C° 0.1 mm 7 mps 759 mmHg 48%
    16:00 +35°C° 0.1 mm 7 mps 758 mmHg 51%
    17:00 +33°C° 0 mm 7 mps 759 mmHg 57%
    18:00 +32°C° 0 mm 6 mps 759 mmHg 64%
    19:00 +29°C° 0 mm 6 mps 760 mmHg 70%
    20:00 +29°C° 0.1 mm 6 mps 760 mmHg 73%
    21:00 +29°C° 0.1 mm 6 mps 761 mmHg 75%
    22:00 +28°C° 0.1 mm 5 mps 761 mmHg 78%
    23:00 +28°C° 0.1 mm 5 mps 761 mmHg 80%

    16 December, Sunday

    Time Temperature Precipitation Wind Pressure Humidity
    00:00 +28°C° 0.1 mm 5 mps 760 mmHg 81%
    01:00 +27°C° 0.1 mm 5 mps 760 mmHg 83%
    02:00 +27°C° 0.1 mm 5 mps 760 mmHg 84%
    03:00 +27°C° 0.1 mm 5 mps 759 mmHg 85%
    04:00 +27°C° 0.1 mm 5 mps 759 mmHg 87%
    05:00 +27°C° 0.2 mm 5 mps 760 mmHg 86%
    06:00 +27°C° 0.2 mm 5 mps 760 mmHg 85%
    07:00 +27°C° 0.2 mm 5 mps 760 mmHg 84%
    08:00 +29°C° 0.2 mm 5 mps 761 mmHg 73%
    09:00 +32°C° 0.2 mm 6 mps 761 mmHg 62%
    10:00 +34°C° 0.2 mm 6 mps 761 mmHg 52%
    11:00 +35°C° 0.3 mm 6 mps 761 mmHg 48%
    12:00 +36°C° 0.3 mm 7 mps 761 mmHg 44%
    13:00 +38°C° 0.3 mm 7 mps 760 mmHg 41%
    14:00 +36°C° 0.9 mm 7 mps 760 mmHg 43%
    15:00 +36°C° 0.9 mm 7 mps 759 mmHg 46%
    16:00 +35°C° 0.9 mm 8 mps 759 mmHg 48%
    17:00 +33°C° 1.7 mm 8 mps 759 mmHg 58%
    18:00 +31°C° 1.7 mm 8 mps 760 mmHg 67%
    19:00 +28°C° 1.7 mm 7 mps 760 mmHg 76%
    20:00 +28°C° 1.7 mm 7 mps 760 mmHg 78%
    21:00 +28°C° 1.7 mm 7 mps 760 mmHg 80%
    22:00 +28°C° 1.7 mm 7 mps 761 mmHg 83%
    23:00 +27°C° 2.3 mm 6 mps 760 mmHg 83%

    17 December, Monday

    Time Temperature Precipitation Wind Pressure Humidity
    00:00 +27°C° 2.3 mm 6 mps 760 mmHg 84%
    01:00 +27°C° 2.3 mm 6 mps 760 mmHg 85%
    02:00 +27°C° 1.8 mm 6 mps 759 mmHg 85%
    03:00 +27°C° 1.8 mm 6 mps 759 mmHg 86%
    04:00 +27°C° 1.8 mm 6 mps 759 mmHg 86%
    05:00 +27°C° 1.8 mm 6 mps 759 mmHg 86%
    06:00 +27°C° 1.8 mm 6 mps 760 mmHg 85%
    07:00 +27°C° 1.8 mm 6 mps 760 mmHg 85%
    08:00 +28°C° 1.4 mm 6 mps 760 mmHg 82%
    09:00 +29°C° 1.4 mm 6 mps 760 mmHg 78%
    10:00 +30°C° 1.4 mm 6 mps 761 mmHg 75%
    11:00 +30°C° 0.9 mm 6 mps 760 mmHg 73%
    12:00 +32°C° 0.9 mm 6 mps 760 mmHg 72%
    13:00 +32°C° 0.9 mm 6 mps 760 mmHg 70%
    14:00 +32°C° 0.5 mm 6 mps 759 mmHg 71%
    15:00 +30°C° 0.5 mm 6 mps 759 mmHg 71%
    16:00 +30°C° 0.5 mm 6 mps 758 mmHg 72%
    17:00 +30°C° 0.4 mm 6 mps 759 mmHg 76%
    18:00 +29°C° 0.4 mm 5 mps 759 mmHg 79%
    19:00 +28°C° 0.4 mm 5 mps 759 mmHg 83%
    20:00 +28°C° 0.3 mm 5 mps 760 mmHg 84%
    21:00 +28°C° 0.3 mm 5 mps 760 mmHg 85%
    22:00 +27°C° 0.3 mm 5 mps 760 mmHg 86%
    23:00 +27°C° 0.6 mm 5 mps 760 mmHg 87%

    18 December, Tuesday

    Time Temperature Precipitation Wind Pressure Humidity
    00:00 +27°C° 0.6 mm 5 mps 760 mmHg 87%
    01:00 +27°C° 0.6 mm 5 mps 760 mmHg 88%
    02:00 +27°C° 0.4 mm 5 mps 759 mmHg 88%
    03:00 +27°C° 0.4 mm 5 mps 759 mmHg 89%
    04:00 +27°C° 0.4 mm 5 mps 759 mmHg 90%
    05:00 +27°C° 0.2 mm 5 mps 759 mmHg 89%
    06:00 +27°C° 0.2 mm 5 mps 759 mmHg 88%
    07:00 +27°C° 0.2 mm 5 mps 760 mmHg 87%
    08:00 +29°C° 0.2 mm 6 mps 760 mmHg 79%
    09:00 +30°C° 0.2 mm 6 mps 760 mmHg 72%
    10:00 +33°C° 0.2 mm 6 mps 760 mmHg 65%
    11:00 +33°C° 0.1 mm 6 mps 760 mmHg 62%
    12:00 +34°C° 0.1 mm 6 mps 759 mmHg 58%
    13:00 +35°C° 0.1 mm 6 mps 759 mmHg 55%
    14:00 +35°C° 0 mm 6 mps 759 mmHg 56%
    15:00 +34°C° 0 mm 7 mps 758 mmHg 58%
    16:00 +34°C° 0 mm 7 mps 758 mmHg 59%
    17:00 +33°C° 0.1 mm 6 mps 758 mmHg 64%
    18:00 +30°C° 0.1 mm 6 mps 758 mmHg 70%
    19:00 +29°C° 0.1 mm 6 mps 759 mmHg 75%
    20:00 +29°C° 0.2 mm 6 mps 759 mmHg 77%
    21:00 +28°C° 0.2 mm 6 mps 759 mmHg 80%
    22:00 +28°C° 0.2 mm 6 mps 760 mmHg 82%
    23:00 +28°C° 0.2 mm 6 mps 759 mmHg 83%
    Show more